Terug naar catalogus

SERVIS 2 DEB

ActiefLEO
NORAD 43393·DEBRIS·🇷🇺 Russia

Gelanceerd Jun 2, 2010 vanaf Plesetsk Cosmodrome

Loading…

Volgende Passages (komende 24 uur)

TLE

VersSource: Space-Track

Epoch: Sep 14, 2026, 10:45 UTC

1 43393U 10023C   26257.44817664  .00003429  00000-0  55835-2 0  9996
2 43393 100.5890 252.4142 0020588  72.4752 287.8626 13.48570719622528

Volg SERVIS 2 DEB in realtime met AllMySat

Download on the App Store